Location: Artiguedieu
(43.5000°N, 0.5454°E)
Time: 13:52:31
(UTC+00:00)

SR - Pass Details

Date: 10 August 2021
Orbit: 581 x 874 km, 66.7° (Epoch: 18 September)

Event Time Altitude Azimuth Distance (km) Brightness Sun altitude
Exits shadow 03:06:19 14° 176° (S) 2,213 ? -17.7°
Maximum altitude 03:10:49 39° 113° (ESE) 1,231 ? -17.1°
Drops below altitude 10° 03:15:52 10° 46° (NE) 2,371 ? -16.4°
Sets 03:18:21 0° 39° (NE) 3,259 ? -16.1°
